This demonstration page uses our WeatherBlox Daily Observations layout. Learn more.

Left ArrowRight Arrow

39.51506, -84.39828

Hourly Observations for February 20, 2019

Temp ( °F °C ) Dew Point ( °F °C ) Humidity (%) Winds ( mph kmh ) Pressure ( in mb ) Visibility ( mi km ) Precip ( " mm )
12:15 am 00:15 Cloudy with Light Snow 33 0.5 23 -5 67 67 E 5 7 30.40 1030 10 16 0.00 0.00
12:35 am 00:35 Cloudy with Light Snow 32 -0.1 25 -3.8 76 76 E 8 13 30.41 1030 3 4 0.00 0.00
12:55 am 00:55 Cloudy with Light Snow 30 -1.2 28 -2.5 91 91 ENE 6 9 30.38 1029 1 2 0.00 0.00
1:15 am 01:15 Cloudy with Snow 29 -1.4 28 -2.1 95 95 ENE 7 11 30.38 1029 1 1 0.01 0.25
1:35 am 01:35 Cloudy with Snow 29 -1.5 28 -2.1 96 96 NE 7 11 30.36 1028 1 1 0.04 1.02
1:55 am 01:55 Cloudy with Snow 29 -1.5 28 -2.1 96 96 NE 7 11 30.36 1028 1 2 0.06 1.52
2:15 am 02:15 Cloudy with Light Snow 29 -1.4 28 -2.1 95 95 ENE 9 15 30.33 1027 2 2 0.02 0.51
2:35 am 02:35 Cloudy with Light Snow 30 -1 29 -1.7 95 95 NE 14 22 30.27 1025 3 5 0.08 2.03
2:55 am 02:55 Cloudy with Light Snow 31 -0.7 29 -1.6 94 94 NE 10 17 30.25 1024 4 6 0.11 2.79
3:15 am 03:15 Cloudy with Light Snow 31 -0.3 30 -1.2 94 94 E 6 9 30.27 1025 4 6 0.05 1.27
3:35 am 03:35 Cloudy with Light Snow 32 -0.1 30 -0.9 94 94 ENE 7 11 30.23 1024 4 6 0.11 2.79
3:55 am 03:55 Cloudy with Mist and Fog 32 0.1 31 -0.7 94 94 NE 8 13 30.20 1023 4 6 0.26 6.60
4:15 am 04:15 Cloudy with Light Snow 33 0.3 31 -0.4 95 95 ENE 10 17 30.18 1022 4 6 0.08 2.03
4:35 am 04:35 Cloudy with Mist and Fog 33 0.4 31 -0.3 95 95 NE 10 17 30.15 1021 3 4 0.16 4.06
4:55 am 04:55 Cloudy with Light Snow 33 0.6 32 -0.1 95 95 ENE 7 11 30.15 1021 4 6 0.21 5.33
5:15 am 05:15 Cloudy with Light Snow 33 0.5 32 0 96 96 ENE 8 13 30.13 1020 3 5 0.05 1.27
5:35 am 05:35 Cloudy with Light Wintry Mix 33 0.6 32 0 96 96 ENE 9 15 30.10 1019 4 6 0.09 2.29
5:55 am 05:55 Cloudy with Light Snow 33 0.7 32 0.1 96 96 ENE 8 13 30.09 1019 4 6 0.14 3.56
6:15 am 06:15 Cloudy with Light Snow 34 1 33 0.3 95 95 NE 7 11 30.12 1020 4 6 0.04 1.02
6:35 am 06:35 Cloudy with Light Snow 34 1 33 0.3 95 95 NE 8 13 30.11 1020 4 6 0.08 2.03
6:55 am 06:55 Cloudy with Light Wintry Mix 34 0.9 32 0.2 95 95 ENE 9 15 30.07 1018 5 8 0.10 2.54
7:15 am 07:15 Cloudy with Light Rain 34 1.1 33 0.4 95 95 ENE 7 11 30.08 1019 10 16 0.00 0.00
7:35 am 07:35 Cloudy 34 1.1 32 0.2 94 94 ENE 8 13 30.05 1018 10 16 0.00 0.00
7:55 am 07:55 Cloudy with Drizzle 35 1.4 33 0.5 94 94 E 7 11 30.05 1018 5 8 0.00 0.00
8:15 am 08:15 Cloudy with Drizzle 35 1.5 33 0.5 93 93 E 5 7 30.05 1018 7 11 0.00 0.00
8:35 am 08:35 Cloudy with Drizzle 35 1.6 33 0.6 93 93 ENE 7 11 30.05 1018 7 11 0.00 0.00
8:55 am 08:55 Cloudy with Drizzle 35 1.5 33 0.6 94 94 NE 5 7 30.06 1018 3 4 0.00 0.00
9:15 am 09:15 Cloudy with Drizzle 35 1.4 33 0.8 96 96 ENE 5 7 30.06 1018 3 4 0.00 0.00
9:35 am 09:35 Cloudy with Drizzle 35 1.4 34 0.9 97 97 NE 5 7 30.05 1018 2 3 0.00 0.00
9:55 am 09:55 Cloudy with Drizzle 35 1.6 34 1.2 97 97 ENE 3 6 30.05 1018 2 3 0.00 0.00
10:15 am 10:15 Cloudy with Drizzle 35 1.6 34 1.2 97 97 ENE 3 6 30.03 1017 2 2 0.00 0.00
10:35 am 10:35 Cloudy with Drizzle 36 2 35 1.6 97 97 Calm 30.01 1016 2 3 0.01 0.25
10:55 am 10:55 Cloudy with Drizzle 37 2.6 36 2.2 97 97 Calm 30.02 1017 3 4 0.01 0.25
11:15 am 11:15 Cloudy with Drizzle 37 2.8 36 2.3 97 97 ESE 5 7 30.00 1016 3 4 0.00 0.00
11:35 am 11:35 Cloudy with Drizzle 38 3.1 37 2.5 96 96 Calm 29.99 1015 3 4 0.00 0.00
11:55 am 11:55 Cloudy with Drizzle 38 3.4 37 2.7 95 95 ESE 5 7 29.98 1015 5 8 0.00 0.00
12:15 pm 12:15 Cloudy with Mist and Fog 39 3.7 37 3 95 95 SE 5 7 29.98 1015 4 6 0.00 0.00
12:35 pm 12:35 Cloudy with Mist and Fog 39 3.9 38 3.3 96 96 ESE 3 6 29.95 1014 4 6 0.00 0.00
12:55 pm 12:55 Cloudy with Mist and Fog 40 4.3 39 3.7 96 96 SE 3 6 29.93 1014 4 6 0.00 0.00
1:15 pm 13:15 Cloudy 40 4.7 39 4.1 96 96 E 5 7 29.89 1012 7 11 0.00 0.00
1:35 pm 13:35 Cloudy with Mist and Fog 41 5 40 4.6 97 97 Calm 29.87 1012 3 5 0.00 0.00
1:55 pm 13:55 Cloudy with Light Rain 42 5.5 41 5 97 97 SE 9 15 29.84 1011 10 16 0.00 0.00
2:15 pm 14:15 Cloudy with Drizzle 42 5.7 41 5.2 97 97 S 7 11 29.84 1010 3 5 0.00 0.00
2:35 pm 14:35 Cloudy with Drizzle 43 6.3 42 5.8 97 97 Calm 29.84 1010 3 4 0.00 0.00
2:55 pm 14:55 Cloudy with Light Rain 43 6.2 42 5.7 97 97 SSE 8 13 29.83 1010 3 5 0.02 0.51
3:15 pm 15:15 Cloudy with Rain 44 6.4 42 5.8 96 96 S 9 15 29.83 1010 10 16 0.01 0.25
3:35 pm 15:35 Cloudy with Light Rain 44 6.7 43 6 95 95 S 5 7 29.82 1010 10 16 0.01 0.25
3:55 pm 15:55 Cloudy with Light Rain 44 6.6 43 6.1 97 97 SSE 5 7 29.80 1009 2 3 0.05 1.27
4:15 pm 16:15 Cloudy with Rain 44 6.6 43 6.2 97 97 S 3 6 29.81 1009 2 3 0.04 1.02
4:35 pm 16:35 Cloudy with Light Rain 44 6.7 44 6.4 98 98 S 5 7 29.81 1009 2 3 0.06 1.52
4:55 pm 16:55 Cloudy with Light Rain 44 6.7 44 6.5 99 99 S 5 7 29.81 1009 1 2 0.06 1.52
5:15 pm 17:15 Cloudy with Light Rain 43 6 42 5.7 98 98 SW 3 6 29.82 1010 0 0 0.01 0.25
5:35 pm 17:35 Cloudy with Light Rain 43 6.2 43 6 99 99 SW 5 7 29.82 1010 0 0 0.01 0.25
5:55 pm 17:55 Cloudy with Light Rain 43 6.2 43 6.1 99 99 S 5 7 29.81 1009 0 0 0.02 0.51
6:15 pm 18:15 Cloudy with Light Rain 44 6.5 44 6.4 99 99 SSW 5 7 29.81 1009 1 1 0.00 0.00
6:35 pm 18:35 Cloudy with Fog 43 6.2 43 6 99 99 SW 7 11 29.83 1010 0 0 0.00 0.00
7:15 pm 19:15 Cloudy with Mist and Fog 45 7 44 6.9 99 99 SSW 7 11 29.85 1011 2 3 0.00 0.00
7:35 pm 19:35 Cloudy with Mist and Fog 44 6.9 44 6.8 99 99 SSW 8 13 29.85 1011 3 4 0.00 0.00
7:55 pm 19:55 Cloudy with Mist and Fog 44 6.8 44 6.7 99 99 SW 7 11 29.87 1011 2 2 0.00 0.00
8:15 pm 20:15 Cloudy with Mist and Fog 45 7.1 45 7 99 99 SW 6 9 29.87 1011 3 5 0.00 0.00
8:35 pm 20:35 Cloudy with Mist and Fog 45 7.3 45 7.2 99 99 SSW 8 13 29.88 1012 7 11 0.00 0.00
8:55 pm 20:55 Cloudy 46 7.5 45 7.4 99 99 WSW 12 19 29.89 1012 10 16 0.00 0.00
9:15 pm 21:15 Cloudy 46 7.7 45 7 95 95 WSW 12 19 29.89 1012 10 16 0.00 0.00
9:35 pm 21:35 Cloudy 46 7.5 43 6.3 92 92 W 13 20 29.92 1013 10 16 0.00 0.00
9:55 pm 21:55 Cloudy 45 7.3 42 5.6 89 89 WSW 9 15 29.93 1013 10 16 0.00 0.00
10:15 pm 22:15 Cloudy 45 7 41 5.2 88 88 WSW 8 13 29.94 1014 10 16 0.00 0.00
10:35 pm 22:35 Cloudy 44 6.7 41 4.9 88 88 WSW 8 13 29.96 1014 10 16 0.00 0.00
10:55 pm 22:55 Cloudy 43 6.2 41 4.8 91 91 W 6 9 29.98 1015 10 16 0.00 0.00
11:15 pm 23:15 Cloudy 43 6.1 40 4.4 89 89 W 9 15 29.99 1016 10 16 0.00 0.00
11:35 pm 23:35 Cloudy 42 5.8 38 3.4 85 85 W 13 20 30.00 1016 10 16 0.00 0.00
11:55 pm 23:55 Cloudy 42 5.5 36 2.3 80 80 W 10 17 30.01 1016 10 16 0.00 0.00

Powered by AerisWeather